This is the latest recevied weather packets stored in our database for station/object OK5TVR-5. If no packets are shown the sender has not sent any weather packets the latest 10 day(s).
| Time | Temp. | Humidity | Pressure | Rain* | Wind** | Luminosity | Snow |
|---|---|---|---|---|---|---|---|
| 1788477740 | 16.11° C | 88% | 1013.1 hPa | 0 mm | - | 0 W/m² | - |
| 1788476840 | 16.67° C | 88% | 1013.1 hPa | 0 mm | - | 0 W/m² | - |
| 1788475940 | 16.11° C | 89% | 1013 hPa | 0 mm | - | 0 W/m² | - |
| 1788475040 | 16.11° C | 88% | 1013 hPa | 0 mm | - | 0 W/m² | - |
| 1788474140 | 16.11° C | 88% | 1013 hPa | 0 mm | - | 0 W/m² | - |
| 1788473240 | 16.67° C | 86% | 1013 hPa | 0 mm | - | 0 W/m² | - |
| 1788472340 | 16.67° C | 85% | 1012.9 hPa | 0 mm | - | 0 W/m² | - |
| 1788471440 | 16.67° C | 86% | 1013 hPa | 0 mm | - | 0 W/m² | - |
| 1788470540 | 16.67° C | 86% | 1013.2 hPa | 0 mm | - | 0 W/m² | - |
| 1788469640 | 16.67° C | 86% | 1013.1 hPa | 0 mm | - | 0 W/m² | - |
| 1788468740 | 17.22° C | 85% | 1013.1 hPa | 0 mm | - | 0 W/m² | - |
| 1788467840 | 17.22° C | 85% | 1013.3 hPa | 0 mm | - | 0 W/m² | - |
| 1788466940 | 17.22° C | 85% | 1013.5 hPa | 0 mm | - | 0 W/m² | - |
| 1788466040 | 17.22° C | 86% | 1013.1 hPa | 0 mm | - | 0 W/m² | - |
| 1788465140 | 17.22° C | 85% | 1013 hPa | 0 mm | - | 0 W/m² | - |
| 1788464240 | 17.22° C | 85% | 1013.3 hPa | 0 mm | - | 0 W/m² | - |
| 1788463340 | 17.22° C | 85% | 1013 hPa | 0 mm | - | 0 W/m² | - |
| 1788462440 | 17.78° C | 83% | 1013.2 hPa | 0 mm | - | 0 W/m² | - |
| 1788461541 | 17.78° C | 83% | 1013.4 hPa | 0 mm | - | 0 W/m² | - |
| 1788460641 | 17.78° C | 84% | 1013.3 hPa | 0.25 mm | - | 0 W/m² | - |
| 1788459741 | 17.22° C | 87% | 1013.5 hPa | 0.51 mm | - | 0 W/m² | - |
| 1788458841 | 16.67° C | 90% | 1013.6 hPa | 0.51 mm | - | 0 W/m² | - |
| 1788457941 | 16.67° C | 89% | 1013.6 hPa | 0.51 mm | - | 0 W/m² | - |
| 1788457041 | 16.67° C | 89% | 1013.7 hPa | 0.51 mm | - | 1 W/m² | - |
| 1788456143 | 17.22° C | 84% | 1013.6 hPa | 0.25 mm | - | 5 W/m² | - |
* Rain latest hour (hover to see other rain measurements)
** Current wind speed in m/s (hover to see current wind gust speed)